Regional Weather Roundup
Issued by NWS

Home | Current Version | Previous Version | Text Only | Print | Product List | Glossary On
Versions: 1 2 3 4 5 6 7 8 9 10 11 12 13 14 15 16 17 18 19 20 21 22 23 24 25 26 27 28
000
ASUS44 KLIX 202214
RWRLA
LOUISIANA WEATHER ROUNDUP
NATIONAL WEATHER SERVICE NEW ORLEANS LA
500 PM CDT SUN AUG 20 2017

NOTE: "FAIR" INDICATES FEW OR NO CLOUDS BELOW 12,000 FEET WITH NO
      SIGNIFICANT WEATHER AND/OR OBSTRUCTIONS TO VISIBILITY.
      SKY/WX - SKY CONDITION AND SIGNIFICANT WEATHER.
      TMP - AIR TEMPERATURE.    DP   - DEWPOINT TEMPERATURE.
      RH  - RELATIVE HUMIDITY.  PRES - PRESSURE.
      HX  - HEAT INDEX.         WCI  - WIND CHILL INDEX.

*  THESE STATIONS ARE NOT NWS OR FAA STATIONS AND ARE NOT UNDER
   NWS QUALITY CONTROL.

LAZ040-048-061>063-065-066-069-202300-
SOUTHEAST LOUISIANA

CITY           SKY/WX    TMP DP  RH WIND       PRES   REMARKS
N.O. INTL ARPT MOSUNNY   93  71  48 NE9       29.98S HX 100
N.O. LAKEFRONT SUNNY     92  73  53 E8        29.99F HX 100
N.O. DOWNTOWN* FAIR      91  73  55 VRB5      30.00S HX  99
RESERVE*       FAIR      96  70  42 E6        29.99S HX 102
SLIDELL        PTSUNNY   92  74  55 VRB3      29.98F HX 101
BATON ROUGE    MOSUNNY   93  73  52 E7        29.98S HX 102
BOOTHVILLE     MOSUNNY   90  77  65 E6        30.00S HX 103
BELLE CHASSE   NOT AVBL
BOGALUSA*      FAIR      93  71  47 CALM      30.01S HX 100
GALLIANO*      PTCLDY    91  74  57 SE6       29.98F HX  99
NEW ROADS*     FAIR      92  73  54 CALM      29.99S HX 101
GONZALES*      FAIR      93  70  46 NE6       29.98S HX  99
HAMMOND*       SUNNY     95  68  41 NE5       29.99S HX  99
HOUMA*         MOSUNNY   91  75  59 SE7       29.98S HX 102
PORT FOURCHON* CLEAR     90  75  62 E10       29.99S HX 100

$$

LAZ041-044-053-054-202300-
SOUTHWEST LOUISIANA

CITY           SKY/WX    TMP DP  RH WIND       PRES   REMARKS
LAKE CHARLES   PTSUNNY   88  77  69 SW5       29.98R HX 100
LAFAYETTE      SUNNY     94  73  50 NE3       29.98S HX 103
PATTERSON      LGT RAIN  83  78  85 S12G20    29.99R
SALT POINT       N/A     79  73  82 SE6       30.00R
NEW IBERIA     SUNNY     93  70  46 SE6       29.99R HX  99
CHENAULT AIRPK PTSUNNY   90  77  66 SW8       29.98R HX 102

$$

LAZ027-028-202300-
CENTRAL LOUISIANA

CITY           SKY/WX    TMP DP  RH WIND       PRES   REMARKS
FORT POLK      CLOUDY    80  76  86 CALM      30.01S
ALEXANDRIA INT LGT RAIN  95  75  52 SE6       29.99R HX 107
ALEXANDRIA     CLOUDY    90  75  61 SE3       30.00R HX 100

$$

LAZ001-002-202300-
NORTHWEST LOUISIANA

CITY           SKY/WX    TMP DP  RH WIND       PRES   REMARKS
SHREVEPORT     CLOUDY    84  76  76 SE3       30.01S
BARKSDALE AFB  CLOUDY    80  74  82 CALM      30.02R
DTN SHREVEPORT CLOUDY    83  73  72 CALM      30.02R

$$

LAZ014-016-202300-
NORTHEAST LOUISIANA

CITY           SKY/WX    TMP DP  RH WIND       PRES   REMARKS
MONROE         MOSUNNY   94  74  52 VRB6      30.00R HX 104
TALLULAH       SUNNY     92  76  59 SE6       30.00S HX 104

$$





USA.gov is the U.S. government's official web portal to all federal, state and local government web resources and services.